カタログに戻る

STARLINK-38092

運用中通信VLEO
NORAD 100012·PAYLOAD·🇺🇸 United States

打ち上げ Jul 14, 2026 から Vandenberg Space Force Base

Loading…

次のパス (今後24時間)

TLE

最新Source: Space-Track

元期: Sep 14, 2026, 14:47 UTC

1 A0012U 26160M   26257.61650466 -.00559989  00000-0 -39572-2 0  9999
2 A0012  70.0001 211.6479 0004002 255.2010 104.8745 15.75277855 11063

AllMySatでSTARLINK-38092をリアルタイム追跡

Download on the App Store